TimeCST,TemperatureF,Dew PointF,Humidity,Sea Level PressureIn,VisibilityMPH,Wind Direction,Wind SpeedMPH,Gust SpeedMPH,PrecipitationIn,Events,Conditions,WindDirDegrees,DateUTC
12:15 AM,28.4,26.6,93,29.97,4.0,NNW,5.8,-,N/A,Snow,Light Snow,340,2013-02-15 06:15:00
12:35 AM,28.4,23.0,80,29.98,5.0,North,11.5,-,N/A,Snow,Light Snow,350,2013-02-15 06:35:00
12:55 AM,26.6,21.2,80,29.99,5.0,North,12.7,-,N/A,Snow,Light Snow,350,2013-02-15 06:55:00
1:15 AM,26.6,21.2,80,30.00,5.0,North,11.5,16.1,N/A,Snow,Light Snow,350,2013-02-15 07:15:00
1:35 AM,26.6,21.2,80,30.01,2.5,NNW,9.2,-,N/A,Snow,Light Snow,340,2013-02-15 07:35:00
1:55 AM,24.8,21.2,86,30.01,5.0,NNW,13.8,-,N/A,Snow,Light Snow,340,2013-02-15 07:55:00
2:15 AM,23.0,19.4,86,30.03,7.0,North,11.5,-,N/A,Snow,Light Snow,350,2013-02-15 08:15:00
2:35 AM,23.0,17.6,80,30.03,10.0,NNW,10.4,-,N/A,,Overcast,330,2013-02-15 08:35:00
2:55 AM,23.0,17.6,80,30.03,10.0,NNW,10.4,-,N/A,,Overcast,330,2013-02-15 08:55:00
3:15 AM,23.0,17.6,80,30.03,10.0,NNW,9.2,-,N/A,,Overcast,330,2013-02-15 09:15:00
3:35 AM,23.0,15.8,74,30.04,10.0,NNW,15.0,21.9,N/A,,Overcast,330,2013-02-15 09:35:00
3:55 AM,21.2,12.2,68,30.05,10.0,NNW,10.4,-,N/A,,Overcast,340,2013-02-15 09:55:00
4:15 AM,21.2,10.4,63,30.06,10.0,NNW,9.2,17.3,N/A,,Mostly Cloudy,330,2013-02-15 10:15:00
4:35 AM,19.4,10.4,68,30.07,10.0,NNW,8.1,-,N/A,,Scattered Clouds,330,2013-02-15 10:35:00
4:55 AM,19.4,10.4,68,30.08,10.0,NW,8.1,-,N/A,,Clear,320,2013-02-15 10:55:00
5:15 AM,17.6,10.4,73,30.09,10.0,WNW,6.9,-,N/A,,Clear,300,2013-02-15 11:15:00
5:35 AM,17.6,10.4,73,30.09,10.0,NW,9.2,-,N/A,,Clear,310,2013-02-15 11:35:00
5:55 AM,17.6,10.4,73,30.10,10.0,NW,9.2,-,N/A,,Clear,310,2013-02-15 11:55:00
6:45 AM,15.8,8.6,73,30.11,10.0,WNW,9.2,-,N/A,,Clear,300,2013-02-15 12:45:00
7:45 AM,15.8,8.6,73,30.14,10.0,WNW,9.2,-,N/A,,Clear,300,2013-02-15 13:45:00
8:45 AM,19.4,8.6,63,30.15,10.0,NW,9.2,-,N/A,,Clear,310,2013-02-15 14:45:00
9:45 AM,21.2,10.4,63,30.17,10.0,NNW,9.2,-,N/A,,Clear,330,2013-02-15 15:45:00
10:45 AM,23.0,10.4,59,30.17,10.0,NW,10.4,-,N/A,,Clear,310,2013-02-15 16:45:00
12:45 PM,24.8,10.4,54,30.14,10.0,West,11.5,17.3,N/A,,Clear,280,2013-02-15 18:45:00
1:45 PM,26.6,10.4,51,30.13,10.0,NW,11.5,19.6,N/A,,Clear,310,2013-02-15 19:45:00
2:45 PM,24.8,8.6,50,30.13,10.0,WNW,10.4,17.3,N/A,,Clear,300,2013-02-15 20:45:00
3:45 PM,24.8,8.6,50,30.14,10.0,West,9.2,-,N/A,,Clear,270,2013-02-15 21:45:00
4:45 PM,24.8,8.6,50,30.15,10.0,West,10.4,-,N/A,,Clear,270,2013-02-15 22:45:00
5:45 PM,23.0,8.6,54,30.15,10.0,West,6.9,-,N/A,,Clear,270,2013-02-15 23:45:00
6:45 PM,21.2,8.6,58,30.16,10.0,WNW,5.8,-,N/A,,Clear,300,2013-02-16 00:45:00
7:50 PM,19.4,6.8,58,30.16,10.0,WNW,9.2,-,N/A,,Clear,300,2013-02-16 01:50:00
8:15 PM,19.4,8.6,63,30.16,10.0,WNW,6.9,-,N/A,,Scattered Clouds,300,2013-02-16 02:15:00
8:35 PM,19.4,6.8,58,30.16,10.0,NW,8.1,-,N/A,,Scattered Clouds,310,2013-02-16 02:35:00
8:50 PM,17.6,6.8,63,30.17,10.0,NW,10.4,-,N/A,,Scattered Clouds,310,2013-02-16 02:50:00
8:55 PM,19.4,6.8,58,30.17,10.0,NW,10.4,-,N/A,,Clear,310,2013-02-16 02:55:00
9:15 PM,19.4,6.8,58,30.17,10.0,NW,10.4,-,N/A,,Clear,320,2013-02-16 03:15:00
9:35 PM,17.6,6.8,63,30.17,10.0,NW,11.5,-,N/A,,Clear,320,2013-02-16 03:35:00
9:55 PM,17.6,5.0,58,30.17,10.0,NW,12.7,18.4,N/A,,Clear,310,2013-02-16 03:55:00
10:15 PM,17.6,5.0,58,30.17,10.0,NW,10.4,-,N/A,,Clear,310,2013-02-16 04:15:00
10:35 PM,15.8,5.0,62,30.17,10.0,NW,10.4,-,N/A,,Clear,310,2013-02-16 04:35:00
10:55 PM,15.8,5.0,62,30.16,10.0,NW,10.4,-,N/A,,Clear,310,2013-02-16 04:55:00
11:15 PM,14.0,5.0,67,30.16,10.0,WNW,6.9,-,N/A,,Clear,300,2013-02-16 05:15:00
11:35 PM,14.0,5.0,67,30.16,10.0,WNW,9.2,-,N/A,,Clear,300,2013-02-16 05:35:00
11:55 PM,14.0,5.0,67,30.16,10.0,WNW,9.2,-,N/A,,Clear,300,2013-02-16 05:55:00